OE7SBH-WX Weather Reports


Display with metric or nautical units.
time (UTC)temp
F
wind
direction
speed
MPH
gust
MPH
rain 1hr
in
rain 24hr
in
rain mn
in
humidity
%
barometer
mb
20260509181033 62 173 4.0 10.0 0.00 0.00 0.00 57 1020.6
20260509180037 61 193 2.0 6.0 0.00 0.00 0.00 58 1020.6
20260509175033 62 185 2.0 3.0 0.00 0.00 0.00 57 1020.4
20260509174022 62 231 4.0 9.0 0.00 0.00 0.00 57 1020.4
20260509173022 63 175 3.0 8.0 0.00 0.00 0.00 55 1020.3
20260509172019 62 192 2.0 6.0 0.00 0.00 0.00 59 1020.4
20260509171033 64 174 2.0 6.0 0.00 0.00 0.00 53 1020.4
20260509170040 65 165 5.0 11.0 0.00 0.00 0.00 51 1020.5
20260509165033 66 157 8.0 14.0 0.00 0.00 0.00 49 1020.4
20260509164109 66 153 7.0 16.0 0.00 0.00 0.00 50 1020.4
20260509163031 66 147 9.0 16.0 0.00 0.00 0.00 49 1020.8
20260509162019 66 143 14.0 19.0 0.00 0.00 0.00 50 1020.9
20260509161029 66 145 14.0 21.0 0.00 0.00 0.00 51 1021.1
20260509160026 65 143 13.0 22.0 0.00 0.00 0.00 53 1021.2
20260509155032 65 143 13.0 24.0 0.00 0.00 0.00 54 1021.2
20260509154019 65 142 13.0 21.0 0.00 0.00 0.00 54 1021.4
20260509153033 65 143 14.0 21.0 0.00 0.00 0.00 54 1021.5
20260509152033 65 144 14.0 22.0 0.00 0.00 0.00 55 1021.6
20260509151033 64 143 15.0 22.0 0.00 0.00 0.00 56 1021.7
20260509150039 65 155 14.0 22.0 0.00 0.00 0.00 54 1021.7
20260509145031 65 145 14.0 23.0 0.00 0.00 0.00 52 1021.7
20260509144019 66 166 11.0 19.0 0.00 0.00 0.00 51 1021.6
20260509143030 66 164 7.0 17.0 0.00 0.00 0.00 49 1021.7
20260509142023 66 166 8.0 18.0 0.00 0.00 0.00 50 1021.6
20260509141020 66 163 8.0 17.0 0.00 0.00 0.00 50 1021.7
20260509140032 66 174 8.0 17.0 0.00 0.00 0.00 52 1021.9
20260509135034 66 164 10.0 17.0 0.00 0.00 0.00 52 1021.7
20260509134019 66 157 6.0 10.0 0.00 0.00 0.00 58 1021.6
20260509133030 67 143 6.0 9.0 0.00 0.00 0.00 52 1021.5
20260509132022 68 161 6.0 10.0 0.00 0.00 0.00 54 1021.4
20260509131020 68 148 5.0 9.0 0.00 0.00 0.00 54 1021.6
20260509130032 66 233 2.0 4.0 0.00 0.00 0.00 57 1021.6
20260509125033 65 309 2.0 6.0 0.00 0.00 0.00 58 1021.6
20260509124028 64 317 7.0 14.0 0.00 0.00 0.00 63 1021.5
20260509123030 65 325 8.0 15.0 0.00 0.00 0.00 62 1021.2
20260509122019 66 323 9.0 15.0 0.00 0.00 0.00 54 1021.1
20260509121028 67 333 12.0 18.0 0.00 0.00 0.00 54 1021.0
20260509120016 68 329 10.0 19.0 0.00 0.00 0.00 52 1020.9
20260509115021 70 331 11.0 18.0 0.00 0.00 0.00 48 1020.8
20260509114032 72 339 3.0 10.0 0.00 0.00 0.00 44 1020.7
20260509113053 73 333 2.0 6.0 0.00 0.00 0.00 43 1020.9
20260509112018 70 158 3.0 4.0 0.00 0.00 0.00 46 1020.9
20260509111030 70 153 3.0 7.0 0.00 0.00 0.00 47 1021.1
20260509110018 68 340 1.0 3.0 0.00 0.00 0.00 49 1021.2
20260509105048 68 327 3.0 6.0 0.00 0.00 0.00 50 1021.3
20260509104015 68 344 4.0 8.0 0.00 0.00 0.00 50 1021.6
20260509103033 67 13 2.0 6.0 0.00 0.00 0.00 53 1021.8
20260509102019 66 346 3.0 8.0 0.00 0.00 0.00 53 1022.0
20260509101033 66 335 4.0 7.0 0.00 0.00 0.00 54 1022.1
20260509100046 67 335 4.0 9.0 0.00 0.00 0.00 53 1022.2
20260509095028 67 327 4.0 8.0 0.00 0.00 0.00 53 1022.4
20260509094016 66 355 3.0 8.0 0.00 0.00 0.00 54 1022.5
20260509093113 66 324 3.0 8.0 0.00 0.00 0.00 54 1022.7
20260509092020 65 333 2.0 8.0 0.00 0.00 0.00 55 1022.7
20260509091034 65 348 2.0 4.0 0.00 0.00 0.00 57 1022.9
20260509090107 65 335 5.0 8.0 0.00 0.00 0.00 59 1022.9
20260509085028 64 90 2.0 4.0 0.00 0.00 0.00 61 1023.1
20260509084036 64 51 1.0 2.0 0.00 0.00 0.00 60 1023.2
20260509083021 63 55 2.0 3.0 0.00 0.00 0.00 64 1023.3
20260509082033 63 116 2.0 4.0 0.00 0.00 0.00 64 1023.3
20260509081034 62 159 3.0 4.0 0.00 0.00 0.00 66 1023.5
20260509080019 61 198 2.0 4.0 0.00 0.00 0.00 67 1023.7
20260509075050 59 154 2.0 4.0 0.00 0.00 0.00 71 1023.8
20260509074023 57 21 2.0 3.0 0.00 0.00 0.00 73 1023.9
20260509073027 57 13 2.0 6.0 0.00 0.00 0.00 73 1023.9
20260509072032 56 338 3.0 4.0 0.00 0.00 0.00 74 1024.0
20260509071034 55 18 2.0 3.0 0.00 0.00 0.00 77 1024.1
20260509070107 54 25 3.0 7.0 0.00 0.00 0.00 78 1024.1
20260509065033 55 15 3.0 6.0 0.00 0.00 0.00 75 1024.2
20260509064022 55 6 1.0 3.0 0.00 0.00 0.00 76 1024.1
20260509063027 54 33 1.0 2.0 0.00 0.00 0.00 79 1024.1
20260509062033 53 29 1.0 3.0 0.00 0.00 0.00 81 1024.0
20260509061034 52 359 0.0 1.0 0.00 0.00 0.00 82 1023.8
20260509060034 51 26 0.0 1.0 0.00 0.00 0.00 84 1023.7
20260509055030 50 12 0.0 2.0 0.00 0.00 0.00 87 1023.7
20260509054023 50 33 0.0 2.0 0.00 0.00 0.00 85 1023.7
20260509053047 49 300 1.0 1.0 0.00 0.00 0.00 86 1023.8
20260509052032 49 325 0.0 2.0 0.00 0.00 0.00 87 1023.6
20260509051030 48 341 1.0 1.0 0.00 0.00 0.00 88 1023.6
20260509050046 47 78 0.0 1.0 0.00 0.00 0.00 90 1023.6
20260509045033 47 150 1.0 2.0 0.00 0.00 0.00 90 1023.4
20260509044016 47 125 1.0 2.0 0.00 0.00 0.00 90 1023.3
20260509043027 47 117 1.0 3.0 0.00 0.00 0.00 90 1023.3
20260509042020 46 25 0.0 1.0 0.00 0.00 0.00 91 1023.2
20260509041034 46 27 0.0 1.0 0.00 0.00 0.00 91 1023.1
20260509040029 46 42 1.0 2.0 0.00 0.00 0.00 91 1023.0
20260509035051 46 0.0 0.0 0.00 0.00 0.00 90 1022.9
20260509034046 46 0.0 0.0 0.00 0.00 0.00 90 1023.1
20260509033032 46 0.0 0.0 0.00 0.00 0.00 90 1023.0
20260509032019 45 0.0 0.0 0.00 0.00 0.00 91 1023.0
20260509031034 47 0.0 0.0 0.00 0.00 0.00 89 1023.0
20260509030033 46 0.0 0.0 0.00 0.00 0.00 90 1022.8
20260509025015 47 0.0 0.0 0.00 0.00 0.00 89 1022.9
20260509024054 47 0.0 0.0 0.00 0.00 0.00 87 1022.8
20260509023030 48 0.0 0.0 0.00 0.00 0.00 87 1022.9
20260509022023 47 0.0 0.0 0.00 0.00 0.00 88 1022.7
20260509021027 48 0.0 0.0 0.00 0.00 0.00 86 1022.8
20260509020032 48 358 1.0 2.0 0.00 0.00 0.00 87 1022.5
20260509015030 48 359 1.0 2.0 0.00 0.00 0.00 85 1022.5
20260509014018 49 0.0 0.0 0.00 0.00 0.00 85 1022.4
20260509013027 48 359 0.0 1.0 0.00 0.00 0.00 86 1022.5
20260509012026 49 359 2.0 2.0 0.00 0.00 0.00 86 1022.4
20260509011033 50 16 1.0 3.0 0.00 0.00 0.00 83 1022.3
20260509010020 50 23 1.0 1.0 0.00 0.00 0.00 83 1022.3
20260509005034 51 23 0.0 1.0 0.00 0.00 0.00 82 1022.4
20260509004027 51 0.0 0.0 0.00 0.00 0.00 82 1022.4
20260509003028 51 22 0.0 1.0 0.00 0.00 0.00 82 1022.5
20260509002016 51 22 0.0 1.0 0.00 0.00 0.00 81 1022.5
20260509001021 52 23 0.0 2.0 0.00 0.00 0.00 81 1022.5
20260509000033 53 111 0.0 1.0 0.00 0.00 0.00 78 1022.5
20260508235054 53 110 1.0 2.0 0.00 0.00 0.00 77 1022.7
20260508234019 53 0.0 0.0 0.00 0.00 0.00 78 1022.7
20260508233030 52 110 0.0 2.0 0.00 0.00 0.00 79 1022.7
20260508232023 53 110 1.0 2.0 0.00 0.00 0.00 79 1022.7
20260508231027 53 108 0.0 1.0 0.00 0.00 0.00 78 1022.7
20260508230032 52 107 1.0 2.0 0.00 0.00 0.00 79 1022.8
20260508225034 52 107 1.0 2.0 0.00 0.00 0.00 80 1022.8
20260508224020 52 104 1.0 2.0 0.00 0.00 0.00 81 1022.8
20260508223034 52 104 0.0 1.0 0.00 0.00 0.00 80 1022.8
20260508222026 52 104 0.0 1.0 0.00 0.00 0.00 81 1022.8
20260508221027 53 104 0.0 1.0 0.00 0.00 0.00 78 1022.6
20260508220026 53 103 1.0 2.0 0.00 0.00 0.00 79 1022.5
20260508215049 53 0.0 0.0 0.00 0.00 0.00 78 1022.5
20260508212032 54 0.0 0.0 0.00 0.00 0.00 75 1022.5
20260508211030 56 45 1.0 1.0 0.00 0.00 0.00 72 1022.4
20260508210019 56 10 1.0 1.0 0.00 0.00 0.00 71 1022.3
20260508205048 55 10 0.0 1.0 0.00 0.00 0.00 74 1022.0
20260508204055 55 10 0.0 1.0 0.00 0.00 0.00 74 1022.0
20260508203018 56 10 0.0 1.0 0.00 0.00 0.00 71 1021.8
20260508202019 56 9 0.0 1.0 0.00 0.00 0.00 72 1021.7
20260508201053 58 320 0.0 1.0 0.00 0.00 0.00 68 1021.6
20260508200043 59 319 0.0 1.0 0.00 0.00 0.00 66 1021.5
20260508195031 59 336 1.0 2.0 0.00 0.00 0.00 64 1021.4
20260508194026 60 0.0 0.0 0.00 0.00 0.00 64 1021.3
20260508193029 60 339 1.0 2.0 0.00 0.00 0.00 63 1021.1
20260508192023 60 2 1.0 4.0 0.00 0.00 0.00 62 1020.9
20260508191027 62 333 1.0 2.0 0.00 0.00 0.00 61 1020.6
20260508190032 62 349 1.0 2.0 0.00 0.00 0.00 58 1020.5
20260508185033 63 346 2.0 4.0 0.00 0.00 0.00 57 1020.3
20260508184019 63 335 4.0 7.0 0.00 0.00 0.00 57 1020.1
20260508183051 64 327 4.0 7.0 0.00 0.00 0.00 56 1020.2
20260508182026 65 327 5.0 9.0 0.00 0.00 0.00 56 1020.0